User: anonymous   Login
Location: Unspecified
(0.0000°N, 0.0000°E)
Time: 13:12:57
(UTC+01:00)
Language:

Landsat 4 - Orbit

View from above orbital plane
View from above orbital plane
View from above satellite
View from above satellite

Ground track
Ground track

The orbit data is extracted from the following two-line orbital elements,

1 13367U 82072A   14302.78482905  .00005678  00000-0  34260-3 0  7792
2 13367 098.1968 015.4586 0013999 223.0791 285.2643 15.11108475739537
Epoch (UTC): 29 October 2014 18:50:09
Eccentricity: 0.0013999
inclination: 98.1968°
perigee height: 523 km
apogee height: 542 km
right ascension of ascending node: 15.4586°
argument of perigee: 223.0791°
revolutions per day: 15.11108475
mean anomaly at epoch: 285.2643°
orbit number at epoch: 73953

The dashed part of the orbit path shows where the satellite is in the earth's shadow,  

DLR